• în România
  • Lista ţărilor
  • Pe 7 zile
  • Temperatura apei
  • Hartă satelitară
  • Meteo pe hartă
  • Widget-uri
  • user-avatar
    Intrare

    Meteo pe oră la Malanville

    Astăzi, 20 Octombrie, Vineri

    Timp Temperatura Precipitaţii Vânt Presiune Umiditate
    00:00 +26°C° 0 mm 1 m/s 744 mmHg 30%
    01:00 +26°C° 0 mm 1 m/s 744 mmHg 32%
    02:00 +25°C° 0 mm 1 m/s 744 mmHg 34%
    03:00 +24°C° 0 mm 1 m/s 744 mmHg 36%
    04:00 +24°C° 0 mm 1 m/s 744 mmHg 38%
    05:00 +24°C° 0 mm 1 m/s 744 mmHg 39%
    06:00 +25°C° 0 mm 1 m/s 744 mmHg 41%
    07:00 +28°C° 0 mm 1 m/s 744 mmHg 35%
    08:00 +31°C° 0 mm 2 m/s 745 mmHg 29%
    09:00 +36°C° 0 mm 2 m/s 745 mmHg 22%
    10:00 +38°C° 0 mm 2 m/s 745 mmHg 19%
    11:00 +39°C° 0 mm 3 m/s 744 mmHg 15%
    12:00 +40°C° 0 mm 3 m/s 744 mmHg 14%
    13:00 +40°C° 0 mm 3 m/s 744 mmHg 13%
    14:00 +42°C° 0 mm 3 m/s 743 mmHg 12%
    15:00 +42°C° 0 mm 3 m/s 743 mmHg 11%
    16:00 +38°C° 0 mm 3 m/s 743 mmHg 13%
    17:00 +36°C° 0 mm 2 m/s 743 mmHg 15%
    18:00 +32°C° 0 mm 1 m/s 743 mmHg 18%
    19:00 +31°C° 0 mm 1 m/s 744 mmHg 19%
    20:00 +30°C° 0 mm 1 m/s 744 mmHg 20%
    21:00 +29°C° 0 mm 1 m/s 744 mmHg 21%
    22:00 +29°C° 0 mm 1 m/s 744 mmHg 22%
    23:00 +28°C° 0 mm 1 m/s 744 mmHg 23%

    Mâine, 21 Octombrie, Sâmbătă

    Timp Temperatura Precipitaţii Vânt Presiune Umiditate
    00:00 +25°C° 0 mm 0 m/s 744 mmHg 25%
    01:00 +25°C° 0 mm 0 m/s 744 mmHg 25%
    02:00 +24°C° 0 mm 0 m/s 744 mmHg 26%
    03:00 +23°C° 0 mm 0 m/s 743 mmHg 27%
    04:00 +25°C° 0 mm 1 m/s 744 mmHg 26%
    05:00 +25°C° 0 mm 1 m/s 744 mmHg 26%
    06:00 +25°C° 0 mm 1 m/s 744 mmHg 26%
    07:00 +29°C° 0 mm 1 m/s 745 mmHg 22%
    08:00 +34°C° 0 mm 2 m/s 745 mmHg 17%
    09:00 +37°C° 0 mm 2 m/s 746 mmHg 13%
    10:00 +39°C° 0 mm 2 m/s 745 mmHg 11%
    11:00 +42°C° 0 mm 3 m/s 744 mmHg 10%
    12:00 +43°C° 0 mm 3 m/s 744 mmHg 8%
    13:00 +43°C° 0 mm 3 m/s 743 mmHg 8%
    14:00 +44°C° 0 mm 3 m/s 742 mmHg 8%
    15:00 +44°C° 0 mm 3 m/s 741 mmHg 7%
    16:00 +40°C° 0 mm 2 m/s 741 mmHg 9%
    17:00 +37°C° 0 mm 2 m/s 742 mmHg 11%
    18:00 +32°C° 0 mm 1 m/s 742 mmHg 13%
    19:00 +31°C° 0 mm 1 m/s 743 mmHg 14%
    20:00 +30°C° 0 mm 1 m/s 743 mmHg 16%
    21:00 +29°C° 0 mm 1 m/s 744 mmHg 17%
    22:00 +29°C° 0 mm 1 m/s 744 mmHg 18%
    23:00 +28°C° 0 mm 1 m/s 744 mmHg 19%

    Poimâine, 22 Octombrie, Duminică

    Timp Temperatura Precipitaţii Vânt Presiune Umiditate
    00:00 +27°C° 0 mm 1 m/s 744 mmHg 20%
    01:00 +27°C° 0 mm 1 m/s 744 mmHg 20%
    02:00 +26°C° 0 mm 1 m/s 743 mmHg 21%
    03:00 +26°C° 0 mm 1 m/s 743 mmHg 21%
    04:00 +25°C° 0 mm 1 m/s 743 mmHg 23%
    05:00 +25°C° 0 mm 1 m/s 744 mmHg 25%
    06:00 +25°C° 0 mm 1 m/s 744 mmHg 27%
    07:00 +28°C° 0 mm 1 m/s 744 mmHg 25%
    08:00 +31°C° 0 mm 2 m/s 745 mmHg 24%
    09:00 +36°C° 0 mm 2 m/s 745 mmHg 22%
    10:00 +38°C° 0 mm 2 m/s 744 mmHg 19%
    11:00 +40°C° 0 mm 1 m/s 744 mmHg 15%
    12:00 +43°C° 0 mm 1 m/s 743 mmHg 12%
    13:00 +43°C° 0 mm 1 m/s 742 mmHg 11%
    14:00 +43°C° 0 mm 1 m/s 742 mmHg 10%
    15:00 +43°C° 0 mm 1 m/s 741 mmHg 9%
    16:00 +40°C° 0 mm 1 m/s 741 mmHg 11%
    17:00 +36°C° 0 mm 1 m/s 741 mmHg 13%
    18:00 +33°C° 0 mm 1 m/s 741 mmHg 15%
    19:00 +32°C° 0 mm 1 m/s 742 mmHg 16%
    20:00 +31°C° 0 mm 1 m/s 743 mmHg 17%
    21:00 +30°C° 0 mm 1 m/s 743 mmHg 19%
    22:00 +30°C° 0 mm 2 m/s 743 mmHg 22%
    23:00 +30°C° 0 mm 2 m/s 743 mmHg 25%

    23 Octombrie, Luni

    Timp Temperatura Precipitaţii Vânt Presiune Umiditate
    00:00 +29°C° 0 mm 3 m/s 743 mmHg 28%
    01:00 +29°C° 0 mm 2 m/s 743 mmHg 33%
    02:00 +28°C° 0 mm 2 m/s 742 mmHg 38%
    03:00 +27°C° 0 mm 2 m/s 742 mmHg 43%
    04:00 +27°C° 0 mm 2 m/s 742 mmHg 48%
    05:00 +27°C° 0 mm 2 m/s 743 mmHg 53%
    06:00 +26°C° 0 mm 2 m/s 743 mmHg 58%
    07:00 +29°C° 0 mm 2 m/s 743 mmHg 52%
    08:00 +32°C° 0 mm 2 m/s 744 mmHg 45%
    09:00 +36°C° 0 mm 3 m/s 744 mmHg 39%
    10:00 +38°C° 0 mm 2 m/s 743 mmHg 31%
    11:00 +41°C° 0 mm 1 m/s 743 mmHg 23%
    12:00 +40°C° 0 mm 0 m/s 742 mmHg 15%
    13:00 +43°C° 0 mm 1 m/s 741 mmHg 14%
    14:00 +43°C° 0 mm 1 m/s 741 mmHg 13%
    15:00 +43°C° 0 mm 1 m/s 740 mmHg 12%
    16:00 +41°C° 0 mm 1 m/s 740 mmHg 14%
    17:00 +37°C° 0 mm 1 m/s 740 mmHg 17%
    18:00 +36°C° 0 mm 2 m/s 740 mmHg 19%
    19:00 +35°C° 0 mm 2 m/s 741 mmHg 21%
    20:00 +34°C° 0 mm 2 m/s 741 mmHg 23%
    21:00 +32°C° 0 mm 2 m/s 742 mmHg 25%
    22:00 +32°C° 0 mm 2 m/s 742 mmHg 28%
    23:00 +31°C° 0 mm 2 m/s 742 mmHg 31%

    24 Octombrie, Marţi

    Timp Temperatura Precipitaţii Vânt Presiune Umiditate
    00:00 +30°C° 0 mm 2 m/s 742 mmHg 35%
    01:00 +30°C° 0 mm 2 m/s 742 mmHg 37%
    02:00 +29°C° 0 mm 2 m/s 742 mmHg 39%
    03:00 +29°C° 0 mm 2 m/s 741 mmHg 41%
    04:00 +29°C° 0 mm 2 m/s 742 mmHg 43%
    05:00 +29°C° 0 mm 2 m/s 742 mmHg 45%
    06:00 +29°C° 0 mm 3 m/s 743 mmHg 48%
    07:00 +31°C° 0 mm 3 m/s 743 mmHg 45%
    08:00 +35°C° 0 mm 4 m/s 743 mmHg 42%
    09:00 +37°C° 0 mm 4 m/s 743 mmHg 39%
    10:00 +39°C° 0 mm 3 m/s 743 mmHg 32%
    11:00 +42°C° 0 mm 2 m/s 742 mmHg 25%
    12:00 +41°C° 0 mm 0 m/s 741 mmHg 18%
    13:00 +44°C° 0 mm 1 m/s 741 mmHg 17%
    14:00 +44°C° 0 mm 1 m/s 740 mmHg 16%
    15:00 +44°C° 0 mm 1 m/s 739 mmHg 15%
    16:00 +42°C° 0 mm 1 m/s 740 mmHg 17%
    17:00 +40°C° 0 mm 2 m/s 740 mmHg 19%
    18:00 +38°C° 0 mm 2 m/s 740 mmHg 20%
    19:00 +37°C° 0 mm 2 m/s 741 mmHg 22%
    20:00 +36°C° 0 mm 2 m/s 741 mmHg 23%
    21:00 +36°C° 0 mm 2 m/s 742 mmHg 24%
    22:00 +35°C° 0 mm 2 m/s 742 mmHg 25%
    23:00 +34°C° 0 mm 2 m/s 742 mmHg 26%

    25 Octombrie, Miercuri

    Timp Temperatura Precipitaţii Vânt Presiune Umiditate
    00:00 +34°C° 0 mm 2 m/s 742 mmHg 28%
    01:00 +32°C° 0 mm 2 m/s 741 mmHg 29%
    02:00 +31°C° 0 mm 2 m/s 741 mmHg 30%
    03:00 +30°C° 0 mm 2 m/s 741 mmHg 32%
    04:00 +30°C° 0 mm 2 m/s 742 mmHg 35%
    05:00 +30°C° 0 mm 2 m/s 742 mmHg 39%
    06:00 +29°C° 0 mm 2 m/s 743 mmHg 42%
    07:00 +32°C° 0 mm 2 m/s 743 mmHg 40%
    08:00 +35°C° 0 mm 2 m/s 743 mmHg 39%
    09:00 +38°C° 0 mm 2 m/s 744 mmHg 37%
    10:00 +40°C° 0 mm 2 m/s 743 mmHg 30%
    11:00 +42°C° 0 mm 2 m/s 742 mmHg 24%
    12:00 +43°C° 0 mm 1 m/s 741 mmHg 17%
    13:00 +43°C° 0 mm 2 m/s 741 mmHg 16%
    14:00 +43°C° 0 mm 2 m/s 740 mmHg 15%
    15:00 +43°C° 0 mm 2 m/s 740 mmHg 14%
    16:00 +41°C° 0 mm 2 m/s 740 mmHg 16%
    17:00 +39°C° 0 mm 2 m/s 741 mmHg 18%
    18:00 +37°C° 0 mm 2 m/s 741 mmHg 20%
    19:00 +36°C° 0 mm 2 m/s 742 mmHg 23%
    20:00 +35°C° 0 mm 2 m/s 742 mmHg 26%
    21:00 +34°C° 0 mm 2 m/s 742 mmHg 28%
    22:00 +32°C° 0 mm 1 m/s 742 mmHg 31%
    23:00 +31°C° 0 mm 1 m/s 742 mmHg 33%
    Arată mai mult